Miscellaneous Local Product
Issued by NWS Hastings, NE

Home | Current Version | Previous Version | Graphics & Text | Print | Product List | Glossary On
Versions: 1 2 3 4 5 6 7 8 9 10 11 12 13 14 15 16 17 18 19 20 21 22 23 24 25 26 27 28 29 30 31 32 33 34 35 36 37 38 39 40 41 42 43 44 45 46 47 48 49 50
000
AXUS43 KGID 012302
MISGRI

GID CWA HOURLY WEATHER ROUNDUP
NATIONAL WEATHER SERVICE HASTINGS NE
600 PM CDT MON JUN 01 2015

NOTE: "FAIR" INDICATES FEW OR NO CLOUDS BELOW 12,000 FEET WITH NO
SIGNIFICANT WEATHER AND/OR OBSTRUCTIONS TO VISIBILITY.

...SOUTH CENTRAL NEBRASKA...

CITY           SKY/WX    TMP DP  RH WIND       PRES   REMARKS
GRAND ISLAND   PTSUNNY   76  57  51 S18G25    30.03S
HASTINGS       CLOUDY    72  57  59 S13G22    30.03F
KEARNEY        CLOUDY    72  57  60 S18G24    30.03F
ORD            PTSUNNY   78  58  49 S17G28    29.99S
YORK           SUNNY     77  50  38 S16       30.04F
AURORA         MOSUNNY   76  54  45 SE15G25   30.03F
LEXINGTON      SUNNY     74  62  65 SE16G24   30.01S
HOLDREGE       PTSUNNY   73  58  60 SE16G23   30.02S
HEBRON         MOSUNNY   75  53  44 S14       30.05F

...NEBRASKA PANHANDLE...

CITY           SKY/WX    TMP DP  RH WIND       PRES   REMARKS
CHADRON        MOSUNNY   81  62  52 S14       29.85F
ALLIANCE       PTSUNNY   77  60  55 S16       29.93F
SCOTTSBLUFF    CLOUDY    69  55  60 NW9       29.95R THUNDER
SIDNEY         MOSUNNY   80  58  46 S16       29.98R

...WESTERN AND NORTH CENTRAL NEBRASKA...

CITY           SKY/WX    TMP DP  RH WIND       PRES   REMARKS
VALENTINE      SUNNY     82  59  45 S16G26    29.92S
AINSWORTH      SUNNY     80  62  53 S17       29.96S
ONEILL         MOSUNNY   78  60  53 S14G22    29.99F
BROKEN BOW     PTSUNNY   76  59  55 S18G29    30.01R
IMPERIAL       SUNNY     81  62  52 SE18G24   29.96S
NORTH PLATTE   SUNNY     77  62  59 SE15G22   29.98S
MCCOOK         MOSUNNY   82  61  48 SE14G23   29.97S

...EASTERN NEBRASKA...

CITY           SKY/WX    TMP DP  RH WIND       PRES   REMARKS
NORFOLK        SUNNY     78  53  41 S16       30.02S
SO SIOUX CITY  SUNNY     78  47  33 S15G23    30.05S
TEKAMAH        SUNNY     77  51  40 SE15G22   30.06S
COLUMBUS       SUNNY     77  52  41 S15       30.05S
ALBION         MOSUNNY   78  53  42 S16G22    30.01F
OMAHA EPPLEY   MOSUNNY   74  51  44 S16       30.07F
OFFUTT AFB     SUNNY     74  53  48 S9        30.07S
MILLARD        SUNNY     74  55  50 SE10      30.07S
LINCOLN        SUNNY     75  54  47 S12       30.06S
NEBRASKA CITY  SUNNY     72  47  41 SE13      30.08F
BEATRICE       SUNNY     74  55  51 S16       30.07S
FALLS CITY     SUNNY     72  53  51 SE9       30.08F

...NORTHERN KANSAS...

CITY           SKY/WX    TMP DP  RH WIND       PRES   REMARKS
GOODLAND       SUNNY     83  60  45 S17G25    29.98S
HILL CITY      PTSUNNY   79  62  56 SE13G22   29.98F
NORTON         PTCLDY    79  59  50 SE17      29.99S
PHILLIPSBURG   CLOUDY    77  63  61 SE13G22   30.01S
SMITH CENTER   PTSUNNY   72  61  68 SE18G25   30.03F
HAYS           MOSUNNY   79  61  53 SE17      30.00F
RUSSELL        PTSUNNY   76  62  62 SE17      30.01F
CONCORDIA      MOSUNNY   74  56  53 S15       30.05S
SALINA         CLOUDY    76  57  51 SE14      30.05S
TOPEKA         PTSUNNY   70  56  61 E14       30.10F



USA.gov is the U.S. government's official web portal to all federal, state and local government web resources and services.